Location: Krasnoyarskiy Pitomnik
(51.1333°N, 71.6167°E)
Time: 04:59:45
(UTC+00:00)

CZ-2D DEB - Pass Details

Date: 09 December 2025
Orbit: 551 x 568 km, 98.3° (Epoch: 24 January)

Event Time Altitude Azimuth Distance (km) Brightness Sun altitude
Rises 01:30:14 0° 191° (S) 2,748 ? -13.9°
Reaches altitude 10° 01:32:34 10° 202° (SSW) 1,853 ? -13.6°
Maximum altitude 01:36:06 29° 264° (W) 1,042 ? -13.1°
Enters shadow 01:38:17 18° 312° (NW) 1,413 ? -12.7°
